Weather History for Erzurum, Turkey

Change the Weather History Date:

Saturday, October 19, 2013

  Actual Average Record
Temperature  
Mean Temperature 45 °F -  
Max Temperature 51 °F 49 °F 68 °F (2004)
Min Temperature 39 °F 30 °F 21 °F (2007)
Degree Days  
Heating Degree Days 20    
Moisture  
Dew Point 38 °F    
Average Humidity 78    
Maximum Humidity 100    
Minimum Humidity 50    
Precipitation  
Precipitation 0.02 in 0.05 in - ()
Sea Level Pressure  
Sea Level Pressure 30.00 in    
Wind  
Wind Speed 10 mph ()    
Max Wind Speed 23 mph    
Max Gust Speed 25 mph    
Visibility 6.5 miles    
Events Rain    
Averages and records for this station are not official NWS values.
T = Trace of Precipitation, MM = Missing Value Source: Averaged Metar Reports

Daily Weather History Graph

Daily Weather History Graph

Search for Another Location

Airport:

Trip Planner

Search our weather history database for the weather conditions in past years. The results will help you decide how hot, cold, wet, or windy it might be!

Date:

Astronomy

Oct. 19, 2013 Rise Set
Actual Time 6:29 AM EEST 5:30 PM EEST
Civil Twilight 6:02 AM EEST 5:57 PM EEST
Nautical Twilight 5:30 AM EEST 6:28 PM EEST
Astronomical Twilight 4:59 AM EEST 7:00 PM EEST
Moon 5:43 PM EEST (10/19) 6:45 AM EEST (10/19)
Length of Visible Light 11h 55m
Length of Day
11h 00m
Full, 100% of the Moon is Illuminated
Oct 19
Full
Oct 27
Last Quarter
Nov 3
New
Nov 10
First Quarter
Nov 17
Full

Hourly Weather History & Observations

Time (EEST) Temp. Windchill Dew Point Humidity Pressure Visibility Wind Dir Wind Speed Gust Speed Precip Events Conditions
12:20 AM 48.2 °F - 35.6 °F 62% 29.89 in 2.5 mi WSW 15.0 mph - N/A   Haze
12:50 AM 50.0 °F - 33.8 °F 54% 29.89 in - WSW 16.1 mph - N/A   Haze
12:57 AM 51.8 °F - 33.8 °F 50% 29.89 in 6.2 mi SW 12.7 mph - N/A Rain Light Rain Showers
1:20 AM 48.2 °F - 39.2 °F 71% 29.92 in 6.2 mi South 12.7 mph - N/A   Mostly Cloudy
1:31 AM 46.4 °F 40.4 °F 41.0 °F 81% 29.92 in 6.2 mi SSW 13.8 mph 25.3 mph N/A Rain Light Rain Showers
1:50 AM 46.4 °F 41.5 °F 41.0 °F 81% 29.92 in 6.2 mi WSW 10.4 mph - N/A Rain Light Rain Showers
2:13 AM 44.6 °F 39.7 °F 41.0 °F 87% 29.89 in 6.2 mi WSW 9.2 mph - N/A   Mostly Cloudy
2:20 AM 44.6 °F 39.7 °F 41.0 °F 87% 29.89 in 6.2 mi WSW 9.2 mph - N/A   Mostly Cloudy
2:50 AM 46.4 °F 41.9 °F 39.2 °F 76% 29.89 in 6.2 mi SW 9.2 mph - N/A   Mostly Cloudy
3:00 AM 47 °F - 39 °F 65%  in 12 mi SW 9.2 mph - - Rain Light Rain Showers
3:20 AM 46.4 °F 44.3 °F 39.2 °F 76% 29.89 in 6.2 mi SW 4.6 mph - N/A   Mostly Cloudy
3:50 AM 44.6 °F 39.7 °F 41.0 °F 87% 29.89 in 6.2 mi SW 9.2 mph - N/A   Mostly Cloudy
4:20 AM 46.4 °F 44.3 °F 39.2 °F 76% 29.89 in 6.2 mi Variable 4.6 mph - N/A   Mostly Cloudy
4:50 AM 44.6 °F 43.1 °F 39.2 °F 81% 29.89 in 6.2 mi Variable 3.5 mph - N/A   Mostly Cloudy
5:20 AM 44.6 °F 37.8 °F 39.2 °F 81% 29.89 in 6.2 mi WSW 15.0 mph - N/A   Mostly Cloudy
5:50 AM 42.8 °F 34.5 °F 41.0 °F 93% 29.89 in 6.2 mi WSW 18.4 mph - N/A   Mostly Cloudy
6:12 AM 41.0 °F 32.5 °F 39.2 °F 93% 29.89 in 6.2 mi WSW 17.3 mph - N/A Rain Light Rain Showers
6:20 AM 41.0 °F 32.5 °F 41.0 °F 100% 29.89 in 6.2 mi WSW 17.3 mph - N/A Rain Light Rain Showers
6:50 AM 41.0 °F 34.3 °F 41.0 °F 100% 29.89 in 5.6 mi WNW 11.5 mph - N/A Rain Light Rain Showers
7:20 AM 41.0 °F 35.8 °F 39.2 °F 93% 29.92 in 6.2 mi West 8.1 mph - N/A Rain Light Rain Showers
7:50 AM 41.0 °F 37.1 °F 39.2 °F 93% 29.95 in 6.2 mi SE 5.8 mph - N/A Rain Light Rain Showers
8:20 AM 41.0 °F 38.0 °F 39.2 °F 93% 29.95 in 6.2 mi SSE 4.6 mph - N/A   Mostly Cloudy
8:50 AM 42.8 °F - 39.2 °F 87% 29.95 in 6.2 mi Variable 2.3 mph - N/A   Mostly Cloudy
9:00 AM 42 °F - 38 °F 83%  in 12 mi South 2.3 mph - - Rain Light Rain Showers
9:20 AM 44.6 °F 42.2 °F 39.2 °F 81% 29.95 in 6.2 mi SW 4.6 mph - N/A   Mostly Cloudy
9:50 AM 46.4 °F 44.3 °F 39.2 °F 76% 29.98 in 6.2 mi SW 4.6 mph - N/A   Mostly Cloudy
10:20 AM 46.4 °F 44.3 °F 39.2 °F 76% 29.98 in 6.2 mi SW 4.6 mph - N/A   Mostly Cloudy
10:50 AM 46.4 °F 40.7 °F 39.2 °F 76% 29.98 in 6.2 mi West 12.7 mph - N/A   Mostly Cloudy
11:20 AM 48.2 °F - 37.4 °F 66% 29.98 in 6.2 mi WSW 10.4 mph - N/A   Mostly Cloudy
11:50 AM 48.2 °F - 37.4 °F 66% 29.98 in 6.2 mi West 15.0 mph - N/A   Mostly Cloudy
12:20 PM 48.2 °F - 35.6 °F 62% 29.98 in 6.2 mi West 17.3 mph - N/A   Mostly Cloudy
12:50 PM 50.0 °F - 33.8 °F 54% 29.98 in 6.2 mi West 20.7 mph - N/A   Mostly Cloudy
1:20 PM 50.0 °F - 33.8 °F 54% 29.98 in 6.2 mi West 19.6 mph - N/A   Mostly Cloudy
1:50 PM 46.4 °F 38.3 °F 37.4 °F 71% 30.01 in 6.2 mi WNW 23.0 mph - N/A   Mostly Cloudy
1:59 PM 44.6 °F 36.1 °F 37.4 °F 76% 30.01 in 5.6 mi West 21.9 mph - N/A Rain Light Rain Showers
2:20 PM 42.8 °F 35.8 °F 39.2 °F 87% 30.04 in 5.6 mi West 13.8 mph - N/A   Mostly Cloudy
2:36 PM 44.6 °F 39.7 °F 37.4 °F 76% 30.04 in 5.6 mi West 9.2 mph - N/A Rain Light Rain Showers
2:50 PM 42.8 °F 37.5 °F 39.2 °F 87% 30.04 in 5.6 mi West 9.2 mph - N/A Rain Light Rain Showers
3:00 PM 43 °F - 40 °F 85%  in 12 mi West 9.2 mph - - Rain Light Rain Showers
3:20 PM 42.8 °F 41.1 °F 39.2 °F 87% 30.04 in 5.6 mi SSW 3.5 mph - N/A   Mostly Cloudy
3:50 PM 46.4 °F 44.3 °F 37.4 °F 71% 30.04 in 6.2 mi SSW 4.6 mph - N/A   Mostly Cloudy
4:20 PM 46.4 °F 41.5 °F 35.6 °F 66% 30.04 in 6.2 mi WSW 10.4 mph - N/A   Mostly Cloudy
4:50 PM 46.4 °F 41.9 °F 37.4 °F 71% 30.04 in 6.2 mi West 9.2 mph - N/A   Mostly Cloudy
5:20 PM 44.6 °F 40.2 °F 37.4 °F 76% 30.06 in 6.2 mi West 8.1 mph - N/A   Mostly Cloudy
5:50 PM 44.6 °F 40.2 °F 37.4 °F 76% 30.09 in 6.2 mi West 8.1 mph - N/A   Mostly Cloudy
6:20 PM 42.8 °F 37.5 °F 37.4 °F 81% 30.09 in 6.2 mi West 9.2 mph - N/A   Mostly Cloudy
6:50 PM 42.8 °F 36.6 °F 35.6 °F 76% 30.12 in 6.2 mi West 11.5 mph - N/A   Mostly Cloudy
7:20 PM 42.8 °F 35.8 °F 35.6 °F 76% 30.12 in 6.2 mi West 13.8 mph - N/A   Mostly Cloudy
7:50 PM 42.8 °F 35.8 °F 35.6 °F 76% 30.12 in 6.2 mi West 13.8 mph - N/A   Mostly Cloudy
8:20 PM 42.8 °F 37.0 °F 35.6 °F 76% 30.15 in 6.2 mi WNW 10.4 mph - N/A   Mostly Cloudy
8:50 PM 41.0 °F 34.7 °F 35.6 °F 81% 30.15 in 6.2 mi West 10.4 mph - N/A   Mostly Cloudy
9:00 PM 41 °F - 35 °F 73%  in 12 mi West 10.4 mph - -   Partly Cloudy
9:20 PM 41.0 °F 33.9 °F 33.8 °F 76% 30.15 in 6.2 mi West 12.7 mph - N/A   Mostly Cloudy
9:50 PM 41.0 °F 33.5 °F 33.8 °F 76% 30.18 in 6.2 mi West 13.8 mph - N/A   Mostly Cloudy
10:20 PM 41.0 °F 33.5 °F 33.8 °F 76% 30.18 in 6.2 mi West 13.8 mph - N/A   Mostly Cloudy
10:50 PM 39.2 °F 31.2 °F 35.6 °F 87% 30.18 in 6.2 mi West 13.8 mph - N/A   Mostly Cloudy
11:20 PM 39.2 °F 33.6 °F 35.6 °F 87% 30.18 in 6.2 mi WSW 8.1 mph - N/A   Mostly Cloudy
11:50 PM 39.2 °F 34.2 °F 35.6 °F 87% 30.18 in 6.2 mi WSW 6.9 mph - N/A   Mostly Cloudy